Location: Poughquag
(41.6090°N, 73.6820°W)
Time: 14:02:09
(UTC-04:00)

POLYITAN 1 - Pass Details

Date: 17 September 2024
Orbit: 534 x 555 km, 98.1° (Epoch: 11 October)

Event Time Altitude Azimuth Distance (km) Brightness Sun altitude
Rises 05:18:35 0° 5° (N) 2,716 ? -15.3°
Reaches altitude 10° 05:20:49 10° 357° (N) 1,814 ? -14.9°
Maximum altitude 05:24:27 39° 289° (WNW) 826 ? -14.3°
Enters shadow 05:26:29 22° 233° (SW) 1,214 ? -13.9°
